Location: Asheville, NC
(35.6000°N, 82.5500°W)
Time: 13:48:14
(UTC-04:00)

Envisat - Pass Details

Date: 12 October 2017
Orbit: 764 x 766 km, 98.2° (Epoch: 21 October)

Event Time Altitude Azimuth Distance (km) Brightness Sun altitude
Exits shadow 19:53:45 11° 55° (NE) 2,242 4.9 -12.1°
Drops below altitude 10° 19:54:30 10° 47° (NE) 2,303 5.0 -12.2°
Sets 19:58:40 0° 13° (NNE) 3,234 6.1 -13.1°
